APSTAR-6C (43450 NORAD) Tracking and Keplerian Element Data

This shows tracking and keplerian element data for the satellite.

Feedback or suggestion? Click here.




ElementValue
Catalog43450
NameAPSTAR-6C
Epoch Orbit2481
Epoch Day34.66378323
Epoch Year2025
RAAN291.0216
Inclination0.0437
Eccentricity0.0003533
Argument of Perigee19.8151
Mean Anonmoly196.1896
Mean Motion1.00272098
Decay Rate-3.14E-06
L11 43450U 18041A 25034.66378323 -.00000314 00000+0 00000+0 0 9999
L22 43450 0.0437 291.0216 0003533 19.8151 196.1896 1.00272098 24816



Live tracking and technical data element details for APSTAR-6C (NORAD 43450). APSTAR-6C can be tracked NOW for your location showing map with azimuth and elevation plus other details from your city location.







IsCatalogInMostPopularTable: catalog: 43450, numindb: 667
Update: records affected: 1



GetName: 43450 APSTAR-6C

Hit Count: updated at: Fri, 18 Jul 2025 17:26:30 GMT